Weather History for Lynchburg, VA

Change the Weather History Date:

Wednesday, October 1, 2014

  Actual Average Record
Temperature  
Mean Temperature 68 °F 61 °F  
Max Temperature 76 °F 73 °F 93 °F (1933)
Min Temperature 59 °F 49 °F 34 °F (1947)
Degree Days  
Heating Degree Days 0 5  
Month to date heating degree days 0 5  
Since 1 July heating degree days 31 66  
Cooling Degree Days 3 1  
Month to date cooling degree days 3 1  
Year to date cooling degree days 955 1017  
Growing Degree Days 17 (Base 50)    
Moisture  
Dew Point 62 °F    
Average Humidity 80    
Maximum Humidity 100    
Minimum Humidity 60    
Precipitation  
Precipitation 0.00 in 0.10 in 2.04 in (1929)
Month to date precipitation 0.00 0.10  
Year to date precipitation 35.61 31.91  
Snow  
Snow 0.00 in - - ()
Month to date snowfall 0.0  
Since 1 July snowfall 0.0  
Since 1 September snowfall 0.0  
Snow Depth 0.00 in    
Sea Level Pressure  
Sea Level Pressure 30.00 in    
Wind  
Wind Speed 2 mph (SSE)    
Max Wind Speed 9 mph    
Max Gust Speed 13 mph    
Visibility 6 miles    
Events Fog    
T = Trace of Precipitation, MM = Missing Value Source: NWS Daily Summary

Daily Weather History Graph

Daily Weather History Graph

Search for Another Location

Airport:

Trip Planner

Search our weather history database for the weather conditions in past years. The results will help you decide how hot, cold, wet, or windy it might be!

Date:

Astronomy

Oct. 01, 2014 Rise Set
Actual Time 7:12 AM EDT 7:00 PM EDT
Civil Twilight 6:46 AM EDT 7:26 PM EDT
Nautical Twilight 6:15 AM EDT 7:56 PM EDT
Astronomical Twilight 5:45 AM EDT 8:26 PM EDT
Moon 2:06 PM EDT (10/1) No Moon Set
Length of Visible Light 12h 39m
Length of Day
11h 47m
Waxing Crescent, 48% of the Moon is Illuminated
Oct 1
Waxing Crescent
Oct 1
First Quarter
Oct 8
Full
Oct 15
Last Quarter
Oct 23
New

Hourly Weather History & Observations

Time (EDT) Temp. Dew Point Humidity Pressure Visibility Wind Dir Wind Speed Gust Speed Precip Events Conditions
12:54 AM 63.0 °F 63.0 °F 100% 29.95 in 0.5 mi South 5.8 mph - N/A Fog Fog
1:03 AM 63.0 °F 63.0 °F 100% 29.97 in 0.2 mi South 6.9 mph - N/A Fog Fog
1:11 AM 63.0 °F 63.0 °F 100% 29.97 in 0.5 mi South 4.6 mph - N/A Fog Fog
1:13 AM 62.1 °F 62.1 °F 100% 29.97 in 5.0 mi East 3.5 mph - N/A   Overcast
1:23 AM 63.0 °F 63.0 °F 100% 29.97 in 6.0 mi East 3.5 mph - N/A   Overcast
1:54 AM 63.0 °F 63.0 °F 100% 29.95 in 5.0 mi ENE 4.6 mph - N/A   Overcast
2:19 AM 63.0 °F 63.0 °F 100% 29.97 in 6.0 mi ENE 4.6 mph - N/A   Overcast
2:49 AM 62.6 °F 62.6 °F 100% 29.95 in 4.0 mi SSW 3.5 mph - N/A   Overcast
2:54 AM 62.1 °F 62.1 °F 100% 29.93 in 3.0 mi SSW 5.8 mph - N/A   Overcast
3:01 AM 62.1 °F 62.1 °F 100% 29.95 in 1.8 mi SSW 5.8 mph - N/A   Overcast
3:47 AM 62.1 °F 62.1 °F 100% 29.93 in 1.0 mi SW 3.5 mph - N/A   Mist
3:54 AM 62.1 °F 62.1 °F 100% 29.92 in 1.0 mi WSW 3.5 mph - N/A   Mist
4:08 AM 63.0 °F 63.0 °F 100% 29.96 in 6.0 mi Calm Calm - N/A   Overcast
4:29 AM 63.0 °F 63.0 °F 100% 29.96 in 6.0 mi Calm Calm - N/A   Overcast
4:54 AM 62.6 °F 62.6 °F 100% 29.97 in 7.0 mi Calm Calm - N/A   Overcast
5:28 AM 63.0 °F 63.0 °F 100% 29.98 in 7.0 mi North 3.5 mph - N/A   Overcast
5:54 AM 63.0 °F 63.0 °F 100% 29.96 in 7.0 mi Calm Calm - N/A   Overcast
6:03 AM 63.0 °F 63.0 °F 100% 29.98 in 6.0 mi Calm Calm - N/A   Overcast
6:11 AM 62.6 °F 62.6 °F 100% 29.98 in 7.0 mi Calm Calm - N/A   Overcast
6:54 AM 63.0 °F 62.1 °F 97% 29.98 in 5.0 mi Calm Calm - N/A   Overcast
7:54 AM 63.0 °F 63.0 °F 100% 30.00 in 5.0 mi Calm Calm - N/A   Overcast
8:43 AM 64.0 °F 63.0 °F 96% 30.03 in 6.0 mi NNE 4.6 mph - N/A   Overcast
8:54 AM 64.0 °F 63.0 °F 96% 30.02 in 4.0 mi NNE 3.5 mph - N/A   Overcast
9:39 AM 64.0 °F 62.1 °F 93% 29.96 in 1.0 mi Calm Calm - N/A   Overcast
9:54 AM 64.0 °F 63.0 °F 96% 30.03 in 6.0 mi Calm Calm - N/A   Overcast
10:30 AM 68.0 °F 63.0 °F 84% 29.95 in 10.0 mi Calm Calm - N/A   Partly Cloudy
10:54 AM 66.9 °F 62.1 °F 84% 30.04 in 10.0 mi Calm Calm - N/A   Overcast
11:54 AM 69.1 °F 61.0 °F 75% 30.04 in 10.0 mi East 3.5 mph - N/A   Overcast
12:09 PM 69.1 °F 60.1 °F 73% 30.06 in 10.0 mi Calm Calm - N/A   Overcast
12:54 PM 70.0 °F 60.1 °F 71% 30.04 in 10.0 mi South 4.6 mph - N/A   Overcast
1:04 PM 70.0 °F 60.1 °F 71% 30.05 in 10.0 mi SSW 3.5 mph - N/A   Overcast
1:12 PM 70.0 °F 61.0 °F 73% 30.05 in 10.0 mi SW 5.8 mph - N/A   Overcast
1:54 PM 71.1 °F 60.1 °F 68% 30.01 in 10.0 mi SE 6.9 mph - N/A   Overcast
2:01 PM 72.0 °F 61.0 °F 68% 30.03 in 9.0 mi South 4.6 mph - N/A   Clear
2:54 PM 73.9 °F 60.1 °F 62% 30.00 in 10.0 mi Calm Calm - N/A   Partly Cloudy
3:54 PM 75.0 °F 61.0 °F 62% 29.99 in 10.0 mi SSE 6.9 mph - N/A   Partly Cloudy
4:54 PM 73.0 °F 61.0 °F 66% 29.99 in 10.0 mi South 4.6 mph - N/A   Partly Cloudy
5:54 PM 72.0 °F 62.1 °F 71% 29.99 in 10.0 mi SSE 3.5 mph - N/A   Scattered Clouds
6:54 PM 66.9 °F 63.0 °F 87% 30.01 in 10.0 mi Calm Calm - N/A   Mostly Cloudy
7:54 PM 64.0 °F 63.0 °F 96% 30.03 in 10.0 mi Calm Calm - N/A   Mostly Cloudy
8:54 PM 63.0 °F 62.1 °F 97% 30.04 in 7.0 mi Calm Calm - N/A   Mostly Cloudy
9:54 PM 62.1 °F 62.1 °F 100% 30.06 in 8.0 mi Calm Calm - N/A   Clear
10:54 PM 61.0 °F 61.0 °F 100% 30.06 in 5.0 mi Calm Calm - N/A   Scattered Clouds
11:26 PM 59.0 °F 59.0 °F 100% 30.08 in 4.0 mi Calm Calm - N/A   Mostly Cloudy
11:49 PM 60.8 °F 60.8 °F 100% 30.08 in 4.0 mi Calm Calm - N/A   Scattered Clouds
11:54 PM 60.1 °F 60.1 °F 100% 30.07 in 4.0 mi Calm Calm - N/A   Scattered Clouds